This demonstration page uses our WeatherBlox Daily Observations layout. Learn more.

Left ArrowRight Arrow

39.92423, -83.80882

Hourly Observations for January 16, 2020

Temp ( °F °C ) Dew Point ( °F °C ) Humidity (%) Winds ( mph kmh ) Pressure ( in mb ) Visibility ( mi km ) Precip ( " mm )
12:56 am 00:56 Cloudy 41 5 39 3.9 93 93 WNW 12 19 30.19 1022 10 16.0934 0 0
1:25 am 01:25 Cloudy 39 4 39 4 100 100 NW 18 30 30.22 1023 9 14.48406 0 0
1:56 am 01:56 Cloudy with Mist and Fog 38 3.3 38 3.3 100 100 WNW 21 33 30.23 1024 4 6.43736 0 0
2:11 am 02:11 Cloudy with Mist and Fog 37 3 37 3 100 100 WNW 17 28 30.26 1025 4 6.43736 0 0
2:52 am 02:52 Cloudy with Light Rain 37 3 37 3 100 100 WNW 16 26 30.29 1026 7 11.26538 0.001 0.001
2:56 am 02:56 Cloudy with Light Rain 37 2.8 37 2.8 100 100 WNW 16 26 30.27 1025 8 12.87472 0.001 0.001
3:19 am 03:19 Cloudy 37 3 36 2 93 93 NW 13 20 30.3 1026 10 16.0934 0.001 0.001
3:21 am 03:21 Cloudy 37 3 36 2 93 93 WNW 14 22 30.3 1026 10 16.0934 0.001 0.001
3:32 am 03:32 Cloudy 37 3 36 2 93 93 WNW 10 17 30.31 1026 10 16.0934 0.001 0.001
3:56 am 03:56 Cloudy 37 2.8 35 1.7 93 93 NNW 12 19 30.31 1026 10 16.0934 0.001 0.001
4:12 am 04:12 Cloudy 37 3 34 1 87 87 NW 12 19 30.33 1027 10 16.0934 0 0
4:56 am 04:56 Cloudy 37 2.8 33 0.6 86 86 WNW 10 17 30.32 1027 10 16.0934 0 0
5:56 am 05:56 Cloudy 37 2.8 32 0 82 82 W 15 24 30.35 1028 10 16.0934 0 0
6:56 am 06:56 Cloudy 36 2.2 31 -0.6 82 82 W 16 26 30.39 1029 10 16.0934 0 0
7:56 am 07:56 Cloudy 35 1.7 30 -1.1 82 82 W 13 20 30.42 1030 10 16.0934 0 0
8:56 am 08:56 Cloudy 34 1.1 29 -1.7 82 82 W 17 28 30.43 1031 10 16.0934 0 0
9:56 am 09:56 Cloudy 33 0.6 27 -2.8 78 78 W 21 33 30.47 1032 10 16.0934 0 0
10:56 am 10:56 Cloudy 33 0.6 27 -2.8 78 78 WNW 17 28 30.48 1032 10 16.0934 0 0
11:56 am 11:56 Cloudy 32 0 26 -3.3 79 79 W 21 33 30.52 1033 10 16.0934 0 0
12:56 pm 12:56 Mostly Cloudy 33 0.6 25 -3.9 72 72 WNW 18 30 30.51 1033 10 16.0934 0 0
1:28 pm 13:28 Partly Cloudy 36 2 25 -4 65 65 WNW 23 37 30.52 1033 10 16.0934 0 0
1:56 pm 13:56 Mostly Sunny 34 1.1 25 -3.9 70 70 NW 17 28 30.51 1033 10 16.0934 0 0
2:56 pm 14:56 Sunny 34 1.1 23 -5 64 64 WNW 16 26 30.5 1033 10 16.0934 0 0
3:56 pm 15:56 Mostly Sunny 34 1.1 23 -5 64 64 WNW 17 28 30.54 1034 10 16.0934 0 0
4:56 pm 16:56 Mostly Sunny 31 -0.6 24 -4.4 76 76 WNW 16 26 30.57 1035 10 16.0934 0 0
5:56 pm 17:56 Mostly Clear 29 -1.7 23 -5 78 78 NW 15 24 30.6 1036 10 16.0934 0 0
6:27 pm 18:27 Mostly Cloudy 28 -2 25 -4 86 86 WNW 12 19 30.63 1037 10 16.0934 0 0
6:56 pm 18:56 Mostly Cloudy 28 -2.2 22 -5.6 78 78 NW 13 20 30.63 1037 10 16.0934 0 0
7:56 pm 19:56 Mostly Cloudy 28 -2.2 22 -5.6 78 78 NW 16 26 30.66 1038 10 16.0934 0 0
8:56 pm 20:56 Cloudy 26 -3.3 19 -7.2 75 75 NNW 17 28 30.68 1039 10 16.0934 0.15 3.81
9:56 pm 21:56 Cloudy 25 -3.9 19 -7.2 78 78 N 14 22 30.71 1040 10 16.0934 0 0
10:56 pm 22:56 Cloudy 23 -5 17 -8.3 78 78 N 10 17 30.73 1041 10 16.0934 0 0
11:56 pm 23:56 Cloudy 23 -5 18 -7.8 81 81 NNW 10 17 30.74 1041 10 16.0934 0 0

Powered by AerisWeather